カタログに戻る

CZ-4 DEB

運用中SSO
NORAD 26347·DEBRIS·🇨🇳 China

打ち上げ Oct 14, 1999 から Taiyuan Satellite Launch Center

Loading…

次のパス (今後24時間)

TLE

最新Source: Space-Track

元期: Sep 13, 2026, 09:59 UTC

1 26347U 99057JG  26256.41641539  .00001296  00000-0  28851-3 0  9991
2 26347  98.4355 323.5895 0054427 127.8073 232.8071 14.57793667394265

AllMySatでCZ-4 DEBをリアルタイム追跡

Download on the App Store